This is the latest recevied weather packets stored in our database for station/object ALTO-WX. If no packets are shown the sender has not sent any weather packets the latest 10 day(s).
| Time | Temp. | Humidity | Pressure | Rain* | Wind** | Luminosity | Snow |
|---|---|---|---|---|---|---|---|
| 1777651267 | 6.67° C | 55% | 984.9 hPa | 0 mm | - | - | - |
| 1777650333 | 6.67° C | 58% | 984.8 hPa | 0 mm | - | - | - |
| 1777649449 | 6.67° C | 51% | 985.4 hPa | 0 mm | - | - | - |
| 1777648533 | 6.67° C | 51% | 985.4 hPa | 0 mm | - | - | - |
| 1777647662 | 6.11° C | 51% | 985.4 hPa | 0 mm | - | - | - |
| 1777646733 | 6.11° C | 60% | 984.8 hPa | 0 mm | - | - | - |
| 1777645852 | 6.11° C | 56% | 985.3 hPa | 0 mm | - | - | - |
| 1777644933 | 6.11° C | 56% | 985.3 hPa | 0 mm | - | - | - |
| 1777644069 | 5.56° C | 56% | 985.3 hPa | 0 mm | - | - | - |
| 1777643133 | 5.56° C | 61% | 984.6 hPa | 0 mm | - | - | - |
| 1777642250 | 5° C | 61% | 984.6 hPa | 0 mm | - | - | - |
| 1777641333 | 4.44° C | 61% | 984.6 hPa | 0 mm | - | - | - |
| 1777640461 | 4.44° C | 61% | 984.6 hPa | 0 mm | - | - | - |
| 1777639533 | 3.89° C | 66% | 984.2 hPa | 0 mm | - | - | - |
| 1777638651 | 3.89° C | 68% | 984.1 hPa | 0 mm | - | - | - |
| 1777637733 | 3.33° C | 68% | 984.1 hPa | 0 mm | - | - | - |
| 1777636864 | 2.78° C | 68% | 984.1 hPa | 0 mm | - | - | - |
| 1777635933 | 2.78° C | 71% | 983.4 hPa | 0 mm | - | - | - |
| 1777635050 | 2.22° C | 72% | 983.5 hPa | 0 mm | - | - | - |
| 1777634133 | 2.78° C | 72% | 983.7 hPa | 0 mm | - | - | - |
| 1777633261 | 2.78° C | 72% | 983.7 hPa | 0 mm | - | - | - |
| 1777632333 | 2.78° C | 66% | 983.2 hPa | 0 mm | - | - | - |
| 1777631451 | 2.78° C | 73% | 983.8 hPa | 0 mm | - | - | - |
| 1777630533 | 2.78° C | 73% | 983.8 hPa | 0 mm | - | - | - |
| 1777629664 | 2.22° C | 73% | 983.8 hPa | 0 mm | - | - | - |
* Rain latest hour (hover to see other rain measurements)
** Current wind speed in m/s (hover to see current wind gust speed)